Notices

What's New in latest Release from April 7th, 2021:

- Updated Glossary, including Speed of Maximum Gust, and Total Hourly Precipitation

- Updated national and regional climate services offices contacts and prices information

- Addition of station inventory lists for 1981-2010, 1971-2000, and 1961-1990 Normals.

If you haven't already, please take our survey and provide feedback about our website: https://eccc.sondage-survey.ca/f/LanguageSelection.aspx?s=442ca660-fcf1-47c0-95a9-59707d6fd709

Hourly Data Report for January 05, 2012

HALIFAX STANFIELD INT'L A
NOVA SCOTIA

44°52'48.060" N
63°30'00.050" W
145.40 m
8202250
71395
YHZ

Download Data

Hourly Data (January 2012)
Hourly Data Report for January 5, 2012
TIME
LST
Temp Definition
°C
Dew Point Definition
°C
Rel Hum Definition
%
Precip. Amount Definition
mm

Wind Dir Definition
10's deg

Wind Spd Definition
km/h
Visibility Definition
km
Stn Press Definition
kPa
Hmdx Definition


Wind Chill Definition


Weather Definition


00:00 -9.6 -11.7 85   26 19 24.1 99.16   -17 Mainly Clear
01:00 -10.1 -12.3 84   24 13 24.1 99.21   -16 Mainly Clear
02:00 -10.3 -12.2 86   24 13 24.1 99.28   -17 Mainly Clear
03:00 -9.4 -11.7 83   22 11 24.1 99.34   -15 Mainly Clear
04:00 -7.8 -11.5 75   23 17 24.1 99.31   -14 Cloudy
05:00 -7.4 -11.9 70   22 20 24.1 99.30   -15 Cloudy
06:00 -6.9 -11.3 71   20 17 24.1 99.33   -13 Cloudy
07:00 -6.3 -10.7 71   18 11 24.1 99.32   -11 Cloudy
08:00 -6.2 -9.9 75   14 11 24.1 99.25   -11 Cloudy
09:00 -5.6 -9.4 75   15 15 24.1 99.24   -11 Cloudy
10:00 -3.6 -8.5 69   16 19 24.1 99.18   -10 Mostly Cloudy
11:00 -1.9 -6.2 72   16 17 8.0 99.08   -7 Snow Showers
12:00 -1.3 -2.8 90   14 13 3.2 98.92   -6 Snow Showers
13:00 -0.5 -1.0 96   17 13 1.2 98.77   -5 Snow Showers
14:00 0.2 -0.2 97   18 15 1.6 98.67     Snow Showers
15:00 -0.1 -0.6 96   23 15 1.2 98.65   -5 Snow Showers
16:00 -0.5 -1.1 96   22 15 2.4 98.63   -5 Snow Showers
17:00 -0.7 -1.5 94   22 17 4.8 98.59   -6 Snow Showers
18:00 -0.9 -1.6 95   22 11 16.1 98.62   -5 Snow Showers
19:00 -1.3 -1.9 96   23 13 19.3 98.70   -6 Cloudy
20:00 -1.6 -2.4 94   25 9 3.2 98.72   -5 Snow Showers
21:00 -2.5 -3.1 96   23 9 19.3 98.71   -6 Mostly Cloudy
22:00 -3.3 -4.1 94   25 11 24.1 98.72   -8 Mostly Cloudy
23:00 -3.8 -5.2 90   25 7 24.1 98.74   -7 Mainly Clear

Notes on Data Quality.

Legend

  • E = Estimated
  • M = Missing
  • NA = Not Available*
  • [empty] = Indicates an unobserved value
Date modified: